Showing default

NUSAT-54(BRANCA MARQUES), 68442

Orbit data source: Space-Track

NUSAT-54(BRANCA MARQUES), 68442 is a payload satellite owned by URUGUS S.A. (AR) in SSO that was launched on Mon, 30 Mar 2026 UTC via an FALCON 9 launch vehicle from the Air Force Western Test Range (AFWTR). Payload-class satellites include a variety of spacecraft equipped with specific instruments for various scientific and technological missions. These include communications satellites like Starlink; space stations such as the ISS; scientific satellites like the Hubble; Earth observation satellites from companies like Planet Labs, Umbra, and HawkEye 360; GPS; miniature CubeSats for education and research; and military/defense satellites.

Loading next visibility...
Identifier
68442, 2026-067AC
Orbit
SSO
Country
Flag of ARAR / ARGN
Related business
Manufacturer
URUGUS S.A.
Mission
Operational spacecraft
Bus & Motor
NEWSAT V, Unknown motor
Mass
41.5 kg wet, 38.5 kg dry
Launch date (UTC)
2026-03-30 (3 months ago)
Launch vehicle
FALCON 9
Launch site
Air Force Western Test Range (AFWTR)
Object type
Payload
Rocket body
Debris
Shape & HBR
Unknown shape, 0.5 m
Radar Cross Section
Medium (>0.1 m² and <1 m²)

Expand to show TLE details & history
Last TLE update: 2 days ago

TLE from 2 days ago
0 NUSAT-54(BRANCA MARQUES)
1 68442U 26067AC  26171.34038840  .00004102  00000-0  20638-3 0  9991
2 68442  97.4544 129.6737 0006218  69.0096 291.1802 15.17764521 12411
Epoch: 2026-06-20T08:10Z
TLE epoch observation values (Epoch: 2026-06-20T08:10:09.557Z)
Latitude
-0.00009°
Longitude
98.57748°
Altitude
514.138 km
Speed
7.607 km/s
True Right ascension
08h 38m 41s
True Declination
0° 00' 00"
Sunlit
Object was in daylight at epoch
Visualization orbit readout
Latitude
Unknown
Longitude
Unknown
Altitude
Unknown
Speed
Unknown
Apparent Right ascension
Unknown
Apparent Declination
Unknown
Sunlit
N/A
Visualization observer readout
Local Sidereal Time
10:37:39
Azimuth
Unknown
Elevation
Unknown
Doppler factor
Unknown
Orbital elements
Apogee altitude
513.852 km
Perigee altitude
505.287 km
Semi-major axis
6,887.706 km
Eccentricity
0.00062
Inclination
97.4544°
RAAN
129.6737°
Arg. of periapsis
69.0096°
True anomaly
291.11374°
Mean anomaly
291.1802°
Eccentric anomaly
291.14697°
Mean motion
3.79692 °/min
Orbital period
94.81 mins
BSTAR
0.00020638
Loading maneuver chart data...
Computing Atmospheric mass density...
Loading historical data...
Loading historical data...
Loading historical data...
Loading historical data...
Loading historical data...
Loading historical data...
Loading historical data...

Documentation

Showing up to 5 results
|